| time (UTC) | temp F | wind direction | speed knots | gust knots | rain 1hr in | rain 24hr in | rain mn in | humidity % | barometer mb |
| 20260902173114 | 58 | 92 | 0.9 | 2.6 | 0.14 | 0.23 | 0.16 | 100 | 1020.9 |
| 20260902171621 | 58 | 0 | 0.0 | 1.7 | 0.10 | 0.19 | 0.12 | 100 | 1021.3 |
| 20260902170107 | 57 | 68 | 1.7 | 5.2 | 0.00 | 0.09 | 0.02 | 100 | 1022.1 |
| 20260902164604 | 58 | 0 | 0.0 | 2.6 | 0.00 | 0.09 | 0.02 | 100 | 1021.6 |
| 20260902163057 | 58 | 0 | 0.0 | 1.7 | 0.00 | 0.09 | 0.02 | 100 | 1021.5 |
| 20260902161608 | 58 | 0 | 0.0 | 1.7 | 0.00 | 0.09 | 0.02 | 100 | 1021.7 |
| 20260902160059 | 58 | 109 | 0.0 | 4.3 | 0.00 | 0.09 | 0.02 | 100 | 1021.6 |
| 20260902154557 | 58 | 0 | 0.9 | 3.5 | 0.00 | 0.09 | 0.02 | 100 | 1021.1 |
| 20260902153105 | 58 | 0 | 0.0 | 2.6 | 0.00 | 0.09 | 0.02 | 100 | 1021.2 |
| 20260902151604 | 58 | 63 | 0.9 | 3.5 | 0.00 | 0.09 | 0.02 | 100 | 1021.3 |
| 20260902150106 | 58 | 100 | 0.9 | 6.1 | 0.00 | 0.09 | 0.02 | 100 | 1021.3 |
| 20260902144559 | 58 | 111 | 1.7 | 4.3 | 0.00 | 0.09 | 0.02 | 100 | 1021.4 |
| 20260902143104 | 59 | 80 | 0.0 | 2.6 | 0.00 | 0.09 | 0.02 | 100 | 1021.5 |
| 20260902141605 | 58 | 0 | 0.0 | 2.6 | 0.00 | 0.09 | 0.02 | 100 | 1021.7 |
| 20260902134620 | 59 | 124 | 0.9 | 2.6 | 0.00 | 0.09 | 0.02 | 100 | 1021.3 |
| 20260902133102 | 59 | 108 | 0.0 | 3.5 | 0.00 | 0.09 | 0.02 | 100 | 1021.5 |
| 20260902131604 | 59 | 133 | 0.0 | 2.6 | 0.00 | 0.09 | 0.02 | 100 | 1021.2 |
| 20260902124559 | 58 | 103 | 0.0 | 2.6 | 0.00 | 0.17 | 0.02 | 100 | 1021.0 |
| 20260902123103 | 58 | 37 | 0.0 | 1.7 | 0.01 | 0.17 | 0.02 | 100 | 1020.9 |
| 20260902121602 | 58 | 129 | 0.0 | 3.5 | 0.01 | 0.17 | 0.02 | 100 | 1020.9 |
| 20260902120101 | 58 | 134 | 0.0 | 4.3 | 0.01 | 0.17 | 0.02 | 100 | 1020.7 |
| 20260902114604 | 58 | 95 | 0.9 | 3.5 | 0.01 | 0.17 | 0.02 | 100 | 1020.9 |
| 20260902113110 | 58 | 86 | 0.0 | 0.9 | 0.00 | 0.16 | 0.01 | 100 | 1020.6 |
| 20260902111601 | 58 | 121 | 0.0 | 1.7 | 0.00 | 0.16 | 0.01 | 100 | 1020.7 |
| 20260902104608 | 58 | 0 | 0.0 | 0.0 | 0.00 | 0.17 | 0.01 | 100 | 1020.7 |
| 20260902103103 | 58 | 0 | 0.0 | 0.0 | 0.00 | 0.17 | 0.01 | 100 | 1020.8 |
| 20260902101558 | 58 | 0 | 0.0 | 0.9 | 0.00 | 0.17 | 0.01 | 100 | 1020.6 |
| 20260902100059 | 58 | 0 | 0.0 | 0.0 | 0.00 | 0.17 | 0.01 | 100 | 1020.6 |
| 20260902094559 | 58 | 0 | 0.0 | 0.0 | 0.00 | 0.17 | 0.01 | 100 | 1020.3 |
| 20260902093101 | 58 | 0 | 0.0 | 0.0 | 0.00 | 0.17 | 0.01 | 100 | 1020.2 |
| 20260902091556 | 58 | 0 | 0.0 | 0.0 | 0.00 | 0.17 | 0.01 | 100 | 1020.1 |
| 20260902090059 | 58 | 0 | 0.0 | 0.0 | 0.00 | 0.17 | 0.01 | 100 | 1019.8 |
| 20260902084600 | 58 | 0 | 0.0 | 0.9 | 0.00 | 0.17 | 0.01 | 100 | 1019.9 |
| 20260902083058 | 58 | 0 | 0.0 | 0.9 | 0.00 | 0.17 | 0.01 | 100 | 1019.8 |
| 20260902081610 | 58 | 0 | 0.0 | 0.0 | 0.00 | 0.17 | 0.01 | 100 | 1019.7 |
| 20260902074614 | 58 | 0 | 0.0 | 0.9 | 0.00 | 0.17 | 0.01 | 100 | 1019.6 |
| 20260902073101 | 58 | 0 | 0.0 | 1.7 | 0.00 | 0.17 | 0.01 | 100 | 1019.8 |
| 20260902071601 | 58 | 0 | 0.0 | 1.7 | 0.00 | 0.17 | 0.01 | 100 | 1019.8 |
| 20260902064555 | 58 | 102 | 0.0 | 1.7 | 0.00 | 0.17 | 0.01 | 100 | 1020.0 |
| 20260902063114 | 58 | 44 | 0.0 | 1.7 | 0.00 | 0.17 | 0.01 | 100 | 1019.7 |
| 20260902060126 | 58 | 108 | 0.9 | 2.6 | 0.00 | 0.17 | 0.01 | 100 | 1019.8 |
| 20260902054611 | 58 | 91 | 0.0 | 2.6 | 0.00 | 0.17 | 0.01 | 100 | 1019.9 |
| 20260902053107 | 59 | 141 | 0.0 | 1.7 | 0.01 | 0.17 | 0.01 | 100 | 1019.9 |
| 20260902051600 | 59 | 0 | 0.0 | 0.9 | 0.01 | 0.17 | 0.01 | 100 | 1019.6 |
| 20260902050105 | 59 | 56 | 0.0 | 2.6 | 0.01 | 0.17 | 0.01 | 100 | 1019.3 |
| 20260902044610 | 59 | 84 | 0.0 | 1.7 | 0.01 | 0.18 | 0.01 | 100 | 1019.3 |
| 20260902043114 | 60 | 67 | 0.0 | 2.6 | 0.00 | 0.17 | 0.00 | 100 | 1019.0 |
| 20260902041608 | 60 | 131 | 0.0 | 4.3 | 0.00 | 0.17 | 0.00 | 100 | 1019.0 |
| 20260902040108 | 60 | 122 | 0.0 | 3.5 | 0.00 | 0.17 | 0.00 | 100 | 1018.8 |
| 20260902034617 | 61 | 108 | 0.0 | 4.3 | 0.00 | 0.17 | 0.17 | 100 | 1018.5 |
| 20260902033059 | 61 | 0 | 0.0 | 1.7 | 0.00 | 0.17 | 0.17 | 100 | 1018.3 |
| 20260902031605 | 62 | 115 | 0.0 | 2.6 | 0.00 | 0.17 | 0.17 | 100 | 1018.1 |
| 20260902030106 | 62 | 0 | 0.0 | 1.7 | 0.00 | 0.17 | 0.17 | 100 | 1018.3 |
| 20260902024609 | 62 | 45 | 0.9 | 2.6 | 0.00 | 0.17 | 0.17 | 100 | 1018.1 |
| 20260902023104 | 62 | 61 | 0.0 | 1.7 | 0.00 | 0.17 | 0.17 | 100 | 1018.1 |
| 20260902021609 | 63 | 0 | 0.0 | 3.5 | 0.00 | 0.17 | 0.17 | 100 | 1018.1 |
| 20260902020106 | 63 | 152 | 0.9 | 2.6 | 0.01 | 0.17 | 0.17 | 100 | 1018.1 |
| 20260902014601 | 64 | 115 | 0.9 | 3.5 | 0.01 | 0.17 | 0.17 | 100 | 1018.1 |
| 20260902013100 | 64 | 138 | 0.9 | 2.6 | 0.01 | 0.17 | 0.17 | 100 | 1018.0 |
| 20260902011602 | 65 | 111 | 0.0 | 5.2 | 0.01 | 0.17 | 0.17 | 100 | 1017.7 |
| 20260902004603 | 65 | 0 | 0.9 | 6.1 | 0.00 | 0.18 | 0.16 | 100 | 1017.2 |
| 20260902003134 | 65 | 0 | 0.0 | 1.7 | 0.00 | 0.18 | 0.16 | 100 | 1016.9 |
| 20260902001559 | 65 | 0 | 0.0 | 1.7 | 0.00 | 0.18 | 0.16 | 100 | 1016.5 |
| 20260902000107 | 66 | 0 | 0.0 | 0.0 | 0.00 | 0.18 | 0.16 | 100 | 1016.3 |
| 20260901234603 | 66 | 0 | 0.0 | 0.0 | 0.00 | 0.19 | 0.16 | 100 | 1016.2 |
| 20260901233106 | 66 | 0 | 0.0 | 0.0 | 0.00 | 0.19 | 0.16 | 100 | 1016.3 |
| 20260901231605 | 66 | 0 | 0.0 | 1.7 | 0.00 | 0.19 | 0.16 | 100 | 1016.4 |
| 20260901224607 | 67 | 136 | 0.0 | 1.7 | 0.00 | 0.19 | 0.16 | 100 | 1016.2 |
| 20260901223101 | 68 | 0 | 0.0 | 0.9 | 0.00 | 0.19 | 0.16 | 100 | 1016.2 |
| 20260901221619 | 68 | 0 | 0.0 | 0.9 | 0.00 | 0.19 | 0.16 | 100 | 1016.1 |
| 20260901220106 | 69 | 0 | 0.0 | 0.0 | 0.00 | 0.19 | 0.16 | 100 | 1015.9 |
| 20260901214559 | 69 | 0 | 0.0 | 0.9 | 0.00 | 0.19 | 0.16 | 100 | 1015.7 |
| 20260901213109 | 69 | 0 | 0.0 | 0.9 | 0.00 | 0.19 | 0.16 | 100 | 1015.8 |
| 20260901211603 | 69 | 0 | 0.0 | 1.7 | 0.00 | 0.19 | 0.16 | 100 | 1015.6 |
| 20260901210132 | 70 | 37 | 0.9 | 2.6 | 0.06 | 0.19 | 0.16 | 100 | 1015.5 |
| 20260901204559 | 70 | 25 | 0.9 | 5.2 | 0.06 | 0.19 | 0.16 | 100 | 1015.5 |
| 20260901203059 | 71 | 0 | 0.0 | 2.6 | 0.06 | 0.19 | 0.16 | 100 | 1015.5 |
| 20260901201604 | 72 | 0 | 0.0 | 1.7 | 0.06 | 0.19 | 0.16 | 100 | 1015.4 |
| 20260901194607 | 73 | 118 | 0.9 | 7.8 | 0.00 | 0.13 | 0.10 | 100 | 1015.3 |
| 20260901193109 | 73 | 108 | 1.7 | 3.5 | 0.00 | 0.13 | 0.10 | 100 | 1015.2 |
| 20260901191616 | 73 | 135 | 2.6 | 6.1 | 0.00 | 0.13 | 0.10 | 100 | 1015.1 |
| 20260901190135 | 74 | 198 | 0.9 | 5.2 | 0.00 | 0.13 | 0.10 | 2 | 1015.2 |
| 20260901184605 | 75 | 49 | 2.6 | 7.0 | 0.00 | 0.13 | 0.10 | 10 | 1015.0 |
| 20260901183108 | 76 | 116 | 0.9 | 4.3 | 0.00 | 0.13 | 0.10 | 24 | 1015.0 |
| 20260901181606 | 76 | 77 | 0.9 | 3.5 | 0.00 | 0.13 | 0.10 | 42 | 1014.9 |
| 20260901180108 | 78 | 26 | 0.9 | 4.3 | 0.00 | 0.13 | 0.10 | 60 | 1014.8 |
| 20260901174602 | 80 | 127 | 1.7 | 4.3 | 0.00 | 0.13 | 0.10 | 65 | 1014.7 |